Terminal Aerodrome Forecast
Issued by NWS Flagstaff, AZ

Home | Current Version | Previous Version | Text Only | Print | Product List | Glossary On
Versions: 1 2 3 4 5 6 7 8 9 10 11 12 13 14 15 16 17 18 19
000
FTUS45 KFGZ 020738 AAA
TAFFLG
TAF AMD
KFLG 020738Z 0208/0306 VRB06KT P6SM SCT080 BKN120
     FM021800 24008KT P6SM SCT080 BKN120 PROB30 0220/0302 5SM TSRA
      BKN060CB=

USA.gov is the U.S. government's official web portal to all federal, state and local government web resources and services.